• In United Kingdom
  • List of Countries
  • For 7 days
  • Water Temperature
  • Satellite Maps
  • Weather Map
  • Weather Widgets
  • user-avatar
    Login

    Hourly Weather La-Plata

    Today, 25 November, Saturday

    Time Temperature Precipitation Wind Pressure Humidity
    00:00 +12°C° 0 mm 3 mps 763 mmHg 69%
    01:00 +12°C° 0 mm 3 mps 763 mmHg 71%
    02:00 +12°C° 0 mm 3 mps 763 mmHg 73%
    03:00 +12°C° 0 mm 3 mps 763 mmHg 74%
    04:00 +12°C° 0 mm 3 mps 763 mmHg 74%
    05:00 +12°C° 0 mm 3 mps 763 mmHg 75%
    06:00 +14°C° 0 mm 3 mps 763 mmHg 66%
    07:00 +17°C° 0 mm 3 mps 763 mmHg 58%
    08:00 +19°C° 0 mm 2 mps 763 mmHg 49%
    09:00 +21°C° 0 mm 2 mps 763 mmHg 43%
    10:00 +23°C° 0 mm 2 mps 762 mmHg 38%
    11:00 +25°C° 0 mm 2 mps 762 mmHg 32%
    12:00 +26°C° 0 mm 2 mps 762 mmHg 30%
    13:00 +26°C° 0 mm 2 mps 762 mmHg 28%
    14:00 +27°C° 0 mm 2 mps 761 mmHg 26%
    15:00 +27°C° 0 mm 2 mps 761 mmHg 28%
    16:00 +26°C° 0 mm 2 mps 760 mmHg 30%
    17:00 +26°C° 0 mm 3 mps 760 mmHg 32%
    18:00 +22°C° 0 mm 3 mps 760 mmHg 36%
    19:00 +20°C° 0 mm 3 mps 760 mmHg 39%
    20:00 +18°C° 0 mm 3 mps 760 mmHg 43%
    21:00 +17°C° 0 mm 4 mps 760 mmHg 48%
    22:00 +17°C° 0 mm 4 mps 761 mmHg 54%
    23:00 +17°C° 0 mm 4 mps 761 mmHg 59%

    Tomorrow, 26 November, Sunday

    Time Temperature Precipitation Wind Pressure Humidity
    00:00 +15°C° 0 mm 4 mps 760 mmHg 65%
    01:00 +15°C° 0 mm 4 mps 760 mmHg 71%
    02:00 +15°C° 0 mm 4 mps 759 mmHg 77%
    03:00 +15°C° 0 mm 4 mps 759 mmHg 77%
    04:00 +14°C° 0 mm 4 mps 759 mmHg 78%
    05:00 +14°C° 0 mm 4 mps 759 mmHg 79%
    06:00 +17°C° 0 mm 4 mps 759 mmHg 70%
    07:00 +20°C° 0 mm 4 mps 759 mmHg 61%
    08:00 +22°C° 0 mm 3 mps 759 mmHg 52%
    09:00 +25°C° 0 mm 3 mps 759 mmHg 45%
    10:00 +26°C° 0 mm 3 mps 758 mmHg 39%
    11:00 +28°C° 0 mm 2 mps 758 mmHg 32%
    12:00 +28°C° 0 mm 3 mps 757 mmHg 30%
    13:00 +29°C° 0 mm 3 mps 757 mmHg 28%
    14:00 +29°C° 0 mm 3 mps 756 mmHg 26%
    15:00 +29°C° 0 mm 3 mps 756 mmHg 29%
    16:00 +28°C° 0 mm 3 mps 755 mmHg 32%
    17:00 +27°C° 0 mm 4 mps 755 mmHg 36%
    18:00 +25°C° 0 mm 4 mps 755 mmHg 44%
    19:00 +22°C° 0 mm 4 mps 755 mmHg 53%
    20:00 +20°C° 0 mm 4 mps 756 mmHg 61%
    21:00 +20°C° 0 mm 4 mps 755 mmHg 63%
    22:00 +19°C° 0 mm 4 mps 755 mmHg 64%
    23:00 +19°C° 0 mm 4 mps 755 mmHg 66%

    Day after tomorrow, 27 November, Monday

    Time Temperature Precipitation Wind Pressure Humidity
    00:00 +19°C° 0 mm 4 mps 755 mmHg 65%
    01:00 +18°C° 0 mm 4 mps 755 mmHg 65%
    02:00 +18°C° 0 mm 3 mps 755 mmHg 64%
    03:00 +18°C° 0 mm 4 mps 756 mmHg 64%
    04:00 +19°C° 0 mm 4 mps 757 mmHg 63%
    05:00 +19°C° 0 mm 5 mps 758 mmHg 62%
    06:00 +19°C° 0 mm 6 mps 759 mmHg 62%
    07:00 +18°C° 0 mm 7 mps 760 mmHg 61%
    08:00 +18°C° 0 mm 9 mps 761 mmHg 60%
    09:00 +19°C° 0 mm 9 mps 761 mmHg 55%
    10:00 +19°C° 0 mm 9 mps 762 mmHg 50%
    11:00 +21°C° 0 mm 9 mps 763 mmHg 45%
    12:00 +22°C° 0 mm 8 mps 763 mmHg 41%
    13:00 +22°C° 0 mm 8 mps 763 mmHg 37%
    14:00 +23°C° 0 mm 8 mps 764 mmHg 33%
    15:00 +22°C° 0 mm 8 mps 764 mmHg 35%
    16:00 +21°C° 0 mm 8 mps 764 mmHg 37%
    17:00 +20°C° 0 mm 8 mps 764 mmHg 40%
    18:00 +17°C° 0 mm 8 mps 765 mmHg 44%
    19:00 +15°C° 0 mm 7 mps 766 mmHg 49%
    20:00 +12°C° 0 mm 7 mps 766 mmHg 53%
    21:00 +11°C° 0 mm 7 mps 767 mmHg 56%
    22:00 +10°C° 0 mm 6 mps 767 mmHg 59%
    23:00 +8°C° 0 mm 6 mps 767 mmHg 62%

    28 November, Tuesday

    Time Temperature Precipitation Wind Pressure Humidity
    00:00 +8°C° 0 mm 5 mps 767 mmHg 65%
    01:00 +7°C° 0 mm 5 mps 767 mmHg 68%
    02:00 +6°C° 0 mm 4 mps 767 mmHg 71%
    03:00 +6°C° 0 mm 4 mps 767 mmHg 73%
    04:00 +7°C° 0 mm 3 mps 767 mmHg 75%
    05:00 +7°C° 0 mm 3 mps 767 mmHg 77%
    06:00 +9°C° 0 mm 3 mps 767 mmHg 68%
    07:00 +12°C° 0 mm 3 mps 767 mmHg 60%
    08:00 +16°C° 0 mm 3 mps 768 mmHg 51%
    09:00 +17°C° 0 mm 3 mps 767 mmHg 46%
    10:00 +19°C° 0 mm 3 mps 767 mmHg 41%
    11:00 +20°C° 0 mm 3 mps 767 mmHg 36%
    12:00 +21°C° 0 mm 3 mps 766 mmHg 35%
    13:00 +22°C° 0 mm 4 mps 765 mmHg 35%
    14:00 +22°C° 0 mm 4 mps 764 mmHg 34%
    15:00 +22°C° 0 mm 5 mps 764 mmHg 36%
    16:00 +21°C° 0 mm 5 mps 764 mmHg 39%
    17:00 +20°C° 0 mm 5 mps 763 mmHg 41%
    18:00 +17°C° 0 mm 5 mps 763 mmHg 50%
    19:00 +15°C° 0 mm 5 mps 764 mmHg 59%
    20:00 +13°C° 0 mm 5 mps 764 mmHg 68%
    21:00 +13°C° 0 mm 5 mps 764 mmHg 72%
    22:00 +12°C° 0 mm 5 mps 764 mmHg 76%
    23:00 +12°C° 0 mm 5 mps 764 mmHg 80%

    29 November, Wednesday

    Time Temperature Precipitation Wind Pressure Humidity
    00:00 +12°C° 0 mm 5 mps 763 mmHg 82%
    01:00 +12°C° 0 mm 5 mps 763 mmHg 85%
    02:00 +12°C° 0 mm 5 mps 763 mmHg 87%
    03:00 +12°C° 0 mm 4 mps 763 mmHg 88%
    04:00 +12°C° 0 mm 4 mps 763 mmHg 88%
    05:00 +12°C° 0 mm 4 mps 763 mmHg 89%
    06:00 +14°C° 0 mm 4 mps 763 mmHg 79%
    07:00 +17°C° 0 mm 4 mps 763 mmHg 69%
    08:00 +20°C° 0 mm 4 mps 763 mmHg 59%
    09:00 +21°C° 0 mm 4 mps 762 mmHg 52%
    10:00 +23°C° 0 mm 4 mps 762 mmHg 45%
    11:00 +25°C° 0 mm 3 mps 762 mmHg 38%
    12:00 +26°C° 0 mm 3 mps 761 mmHg 36%
    13:00 +27°C° 0 mm 3 mps 760 mmHg 33%
    14:00 +27°C° 0 mm 3 mps 760 mmHg 31%
    15:00 +27°C° 0 mm 4 mps 759 mmHg 33%
    16:00 +26°C° 0 mm 4 mps 759 mmHg 35%
    17:00 +26°C° 0 mm 5 mps 759 mmHg 37%
    18:00 +22°C° 0 mm 5 mps 759 mmHg 49%
    19:00 +20°C° 0 mm 6 mps 759 mmHg 61%
    20:00 +17°C° 0 mm 6 mps 760 mmHg 73%
    21:00 +17°C° 0 mm 6 mps 760 mmHg 75%
    22:00 +16°C° 0 mm 5 mps 760 mmHg 78%
    23:00 +16°C° 0 mm 5 mps 760 mmHg 80%

    30 November, Thursday

    Time Temperature Precipitation Wind Pressure Humidity
    00:00 +16°C° 0 mm 5 mps 760 mmHg 80%
    01:00 +16°C° 0 mm 5 mps 760 mmHg 80%
    02:00 +16°C° 0 mm 5 mps 759 mmHg 80%
    03:00 +15°C° 0 mm 5 mps 760 mmHg 80%
    04:00 +15°C° 0 mm 5 mps 760 mmHg 81%
    05:00 +15°C° 0 mm 4 mps 760 mmHg 82%
    06:00 +18°C° 0 mm 4 mps 760 mmHg 73%
    07:00 +20°C° 0 mm 4 mps 760 mmHg 63%
    08:00 +22°C° 0 mm 4 mps 760 mmHg 54%
    09:00 +25°C° 0 mm 4 mps 760 mmHg 48%
    10:00 +26°C° 0 mm 3 mps 760 mmHg 42%
    11:00 +28°C° 0 mm 3 mps 759 mmHg 36%
    12:00 +28°C° 0 mm 3 mps 759 mmHg 33%
    13:00 +29°C° 0 mm 4 mps 758 mmHg 31%
    14:00 +29°C° 0 mm 4 mps 758 mmHg 28%
    15:00 +29°C° 0 mm 4 mps 758 mmHg 29%
    16:00 +28°C° 0 mm 4 mps 757 mmHg 30%
    17:00 +27°C° 0 mm 5 mps 757 mmHg 31%
    18:00 +25°C° 0 mm 5 mps 757 mmHg 41%
    19:00 +22°C° 0 mm 5 mps 757 mmHg 51%
    20:00 +19°C° 0 mm 5 mps 758 mmHg 61%
    21:00 +19°C° 0 mm 5 mps 758 mmHg 64%
    22:00 +19°C° 0 mm 5 mps 758 mmHg 67%
    23:00 +18°C° 0 mm 4 mps 758 mmHg 71%
    Show more